FW9090 Weather Reports


time (UTC)temp
C
wind
direction
speed
KPH
gust
KPH
rain 1hr
cm
rain 24hr
cm
rain mn
cm
humidity
%
barometer
mb
20260503175529 14 172 4.8 20.9 0.00 0.00 0.00 74 1013.0
20260503175028 14 253 6.4 20.9 0.00 0.00 0.00 75 1013.0
20260503174551 15 219 4.8 17.7 0.00 0.00 0.00 74 1012.9
20260503174029 15 217 4.8 17.7 0.00 0.00 0.00 74 1012.8
20260503173529 15 148 4.8 17.7 0.00 0.00 0.00 74 1012.9
20260503173055 14 211 6.4 17.7 0.00 0.00 0.00 75 1012.8
20260503172528 14 188 4.8 17.7 0.00 0.00 0.00 75 1012.7
20260503172029 14 206 4.8 16.1 0.00 0.00 0.00 75 1012.8
20260503171546 15 194 3.2 16.1 0.00 0.00 0.00 75 1012.7
20260503171031 15 247 4.8 16.1 0.00 0.00 0.00 74 1012.7
20260503170529 15 257 4.8 17.7 0.00 0.00 0.00 74 1012.7
20260503150530 12 211 3.2 11.3 0.00 0.00 0.00 79 1012.3
20260503131028 12 229 3.2 11.3 0.00 0.00 0.00 80 1010.8
20260503130529 12 207 3.2 11.3 0.00 0.00 0.00 80 1010.8
20260503110533 12 233 3.2 12.9 0.00 0.00 0.00 80 1010.9
20260503081555 12 198 3.2 14.5 0.00 0.00 0.00 81 1011.4
20260503081031 12 186 1.6 14.5 0.00 0.00 0.00 81 1011.4
20260503080529 12 203 4.8 14.5 0.00 0.00 0.00 81 1011.5
20260503072532 12 212 3.2 11.3 0.00 0.00 0.00 81 1011.6
20260503072030 12 209 3.2 11.3 0.00 0.00 0.00 81 1011.6
20260503071603 12 217 4.8 11.3 0.00 0.00 0.00 81 1011.6
20260503071029 12 225 3.2 11.3 0.00 0.00 0.00 81 1011.6
20260503070532 12 219 4.8 12.9 0.00 0.00 0.00 81 1011.7
20260503055027 12 234 4.8 14.5 0.00 0.00 0.00 81 1012.2
20260503054554 12 201 1.6 11.3 0.00 0.00 0.00 81 1012.1
20260503054030 12 0 3.2 11.3 0.00 0.00 0.00 81 1012.2
20260503053530 12 176 1.6 12.9 0.00 0.00 0.00 81 1012.3
20260503053040 12 217 4.8 12.9 0.00 0.00 0.00 81 1012.2
20260503052529 12 210 4.8 12.9 0.00 0.00 0.00 81 1012.2
20260503052030 12 219 4.8 12.9 0.00 0.00 0.00 81 1012.2
20260503051548 12 232 4.8 12.9 0.00 0.00 0.00 81 1012.3
20260503051029 12 234 3.2 12.9 0.00 0.00 0.00 81 1012.3
20260503050529 12 240 4.8 12.9 0.00 0.00 0.00 81 1012.3
20260503050039 12 224 6.4 12.9 0.00 0.00 0.00 81 1012.3
20260503045530 12 219 3.2 11.3 0.00 0.00 0.00 81 1012.3
20260503045030 12 226 3.2 14.5 0.00 0.00 0.00 81 1012.3
20260503044538 12 232 4.8 14.5 0.00 0.00 0.00 81 1012.1
20260503044029 12 223 3.2 9.7 0.00 0.00 0.00 81 1012.1
20260503043527 12 232 3.2 9.7 0.00 0.00 0.00 81 1012.0
20260503043045 12 0 0.0 8.0 0.00 0.00 0.00 81 1012.0
20260503042529 12 259 1.6 12.9 0.00 0.00 0.00 81 1011.9
20260503042029 12 224 1.6 14.5 0.00 0.00 0.00 81 1011.9
20260503041543 12 204 3.2 14.5 0.00 0.00 0.00 80 1011.9
20260503041028 12 231 3.2 17.7 0.00 0.00 0.00 80 1011.9
20260503040532 12 322 4.8 17.7 0.00 0.00 0.00 80 1012.0
20260503040041 12 221 4.8 17.7 0.00 0.00 0.00 81 1011.8
20260503035528 12 250 4.8 12.9 0.00 0.00 0.00 81 1011.8
20260503035030 12 248 3.2 12.9 0.00 0.00 0.00 80 1011.9
20260503034544 12 212 1.6 14.5 0.00 0.00 0.00 80 1011.7
20260503034029 12 249 6.4 14.5 0.00 0.00 0.00 80 1011.8
20260503033529 12 232 4.8 14.5 0.00 0.00 0.00 80 1011.6
20260503033051 12 286 3.2 14.5 0.00 0.00 0.00 80 1011.5
20260503032529 12 190 3.2 12.9 0.00 0.00 0.00 80 1011.5
20260503032029 12 301 4.8 19.3 0.00 0.00 0.00 80 1011.4
20260503031540 12 172 1.6 19.3 0.00 0.00 0.00 80 1011.3
20260503031029 12 196 8.0 16.1 0.00 0.00 0.00 79 1011.3
20260503030529 12 196 4.8 16.1 0.00 0.00 0.00 79 1011.2
20260503030044 12 265 3.2 16.1 0.00 0.00 0.00 79 1011.1
20260503025529 12 221 4.8 16.1 0.00 0.00 0.00 78 1011.1
20260503025029 13 199 4.8 16.1 0.00 0.00 0.00 78 1011.2
20260503024547 13 251 3.2 14.5 0.00 0.00 0.00 78 1011.2
20260503024031 13 252 4.8 16.1 0.00 0.00 0.00 77 1011.2
20260503023530 13 173 4.8 16.1 0.00 0.00 0.00 77 1011.0
20260503023044 13 304 3.2 12.9 0.00 0.00 0.00 77 1011.0
20260503022528 13 279 3.2 19.3 0.00 0.00 0.00 76 1011.0
20260503022029 13 250 4.8 19.3 0.00 0.00 0.00 76 1011.0
20260503021538 13 220 6.4 16.1 0.00 0.00 0.00 75 1011.0
20260503021028 13 300 4.8 16.1 0.00 0.00 0.00 75 1011.0
20260503020531 13 301 3.2 17.7 0.00 0.00 0.00 75 1010.9
20260503020043 13 50 6.4 19.3 0.00 0.00 0.00 74 1010.9
20260503015530 14 292 8.0 19.3 0.00 0.00 0.00 74 1011.0
20260503015029 14 285 4.8 16.1 0.00 0.00 0.00 73 1011.0
20260503014551 14 274 3.2 16.1 0.00 0.00 0.00 73 1010.9
20260503014030 15 236 6.4 20.9 0.00 0.00 0.00 73 1010.9
20260503013529 15 174 8.0 20.9 0.00 0.00 0.00 72 1011.0
20260503013041 15 270 6.4 14.5 0.00 0.00 0.00 72 1011.0
20260503012531 15 306 3.2 14.5 0.00 0.00 0.00 71 1010.9
20260503012031 15 279 4.8 17.7 0.00 0.00 0.00 71 1010.9
20260503011546 15 221 6.4 17.7 0.00 0.00 0.00 71 1010.9
20260503011032 15 265 8.0 17.7 0.00 0.00 0.00 70 1010.9
20260503010530 16 149 4.8 16.1 0.00 0.00 0.00 69 1011.0
20260503010039 16 290 3.2 19.3 0.00 0.00 0.00 69 1010.9
20260503005530 16 279 4.8 19.3 0.00 0.00 0.00 70 1011.0
20260503005025 16 260 4.8 22.5 0.00 0.00 0.00 69 1010.9
20260503004539 16 0 6.4 22.5 0.00 0.00 0.00 68 1011.0
20260503004030 16 170 4.8 16.1 0.00 0.00 0.00 68 1011.0
20260503003529 16 292 4.8 16.1 0.00 0.00 0.00 68 1011.0
20260503003044 16 269 4.8 17.7 0.00 0.00 0.00 69 1011.0
20260503002528 16 173 6.4 17.7 0.00 0.00 0.00 69 1011.0
20260503002028 16 213 8.0 16.1 0.00 0.00 0.00 68 1010.9
20260503001541 17 258 8.0 16.1 0.00 0.00 0.00 67 1011.0
20260503001024 17 198 4.8 17.7 0.00 0.00 0.00 68 1011.0
20260503000528 17 221 6.4 17.7 0.00 0.00 0.00 67 1011.0
20260503000040 17 180 1.6 16.1 0.00 0.00 0.00 68 1011.1
20260502235526 17 209 4.8 16.1 0.00 0.00 0.00 68 1011.1
20260502235025 17 198 4.8 19.3 0.00 0.00 0.00 68 1011.1
20260502234553 16 274 8.0 19.3 0.00 0.00 0.00 68 1011.2
20260502234027 17 216 8.0 22.5 0.00 0.00 0.00 67 1011.2
20260502233527 17 57 6.4 22.5 0.00 0.00 0.00 67 1011.2
20260502233038 17 213 4.8 19.3 0.00 0.00 0.00 67 1011.3
20260502232528 17 266 8.0 19.3 0.00 0.00 0.00 66 1011.5
20260502232030 17 323 4.8 16.1 0.00 0.00 0.00 66 1011.4
20260502231538 17 267 4.8 16.1 0.00 0.00 0.00 66 1011.5
20260502231026 17 262 4.8 24.1 0.00 0.00 0.00 66 1011.5
20260502230526 17 289 6.4 24.1 0.00 0.00 0.00 66 1011.7
20260502230050 17 288 8.0 19.3 0.00 0.00 0.00 65 1011.7
20260502225525 17 324 4.8 25.7 0.00 0.00 0.00 65 1011.7
20260502225026 17 183 9.7 25.7 0.00 0.00 0.00 65 1011.8
20260502224540 17 287 8.0 20.9 0.00 0.00 0.00 66 1011.9
20260502224031 17 180 8.0 22.5 0.00 0.00 0.00 66 1011.9
20260502223527 17 230 9.7 27.4 0.00 0.00 0.00 66 1012.1
20260502223049 17 248 6.4 27.4 0.00 0.00 0.00 65 1012.1
20260502222528 17 295 4.8 22.5 0.00 0.00 0.00 65 1012.2
20260502222028 17 300 9.7 22.5 0.00 0.00 0.00 66 1012.2
20260502221539 17 301 8.0 24.1 0.00 0.00 0.00 66 1012.3
20260502221026 17 299 6.4 25.7 0.00 0.00 0.00 66 1012.3
20260502220528 17 259 11.3 25.7 0.00 0.00 0.00 66 1012.3
20260502220050 17 276 8.0 19.3 0.00 0.00 0.00 66 1012.3
20260502215526 17 210 6.4 27.4 0.00 0.00 0.00 67 1012.3
20260502215027 17 240 6.4 27.4 0.00 0.00 0.00 68 1012.4
20260502214546 17 261 8.0 27.4 0.00 0.00 0.00 67 1012.5
20260502214032 17 192 8.0 24.1 0.00 0.00 0.00 66 1012.3
20260502213528 17 265 8.0 24.1 0.00 0.00 0.00 67 1012.4
20260502213045 17 281 6.4 27.4 0.00 0.00 0.00 66 1012.4
20260502212527 17 299 8.0 27.4 0.00 0.00 0.00 67 1012.3
20260502212027 17 213 8.0 20.9 0.00 0.00 0.00 67 1012.4
20260502211540 17 234 8.0 20.9 0.00 0.00 0.00 68 1012.6
20260502211028 17 273 6.4 20.9 0.00 0.00 0.00 67 1012.7
20260502210527 17 279 8.0 20.9 0.00 0.00 0.00 68 1012.7
20260502210042 17 203 4.8 22.5 0.00 0.00 0.00 70 1012.8
20260502205528 17 211 9.7 22.5 0.00 0.00 0.00 69 1012.8
20260502205028 17 200 4.8 24.1 0.00 0.00 0.00 70 1012.9
20260502204540 17 172 4.8 24.1 0.00 0.00 0.00 70 1013.0
20260502204030 17 257 4.8 17.7 0.00 0.00 0.00 71 1013.0
20260502203529 16 256 4.8 19.3 0.00 0.00 0.00 71 1013.2
20260502203046 16 261 6.4 19.3 0.00 0.00 0.00 72 1013.2
20260502202527 16 192 6.4 16.1 0.00 0.00 0.00 71 1013.3
20260502202027 16 215 4.8 16.1 0.00 0.00 0.00 72 1013.3
20260502201541 16 126 3.2 16.1 0.00 0.00 0.00 74 1013.3
20260502201031 16 194 8.0 19.3 0.00 0.00 0.00 74 1013.5
20260502200527 15 172 6.4 20.9 0.00 0.00 0.00 75 1013.5
20260502200038 15 215 4.8 20.9 0.00 0.00 0.00 75 1013.4
20260502195526 15 195 3.2 19.3 0.00 0.00 0.00 76 1013.5
20260502195028 15 248 6.4 19.3 0.00 0.00 0.00 76 1013.5
20260502194541 15 298 4.8 16.1 0.00 0.00 0.00 76 1013.5
20260502194028 15 192 6.4 19.3 0.00 0.00 0.00 77 1013.5
20260502193532 15 225 6.4 19.3 0.00 0.00 0.00 77 1013.6
20260502193055 15 307 8.0 17.7 0.00 0.00 0.00 77 1013.5
20260502192526 15 213 3.2 16.1 0.00 0.00 0.00 78 1013.4
20260502192027 15 215 4.8 17.7 0.00 0.00 0.00 78 1013.5
20260502191540 15 246 6.4 17.7 0.00 0.00 0.00 78 1013.6
20260502191027 14 238 8.0 22.5 0.00 0.00 0.00 79 1013.7
20260502190527 14 216 4.8 22.5 0.00 0.00 0.00 79 1013.6
20260502190044 15 216 4.8 22.5 0.00 0.00 0.00 79 1013.5
20260502185531 15 254 6.4 17.7 0.00 0.00 0.00 79 1013.5
20260502185027 15 227 8.0 19.3 0.00 0.00 0.00 79 1013.5
20260502184545 15 244 4.8 19.3 0.00 0.00 0.00 78 1013.4
20260502184028 15 215 4.8 25.7 0.00 0.00 0.00 79 1013.5
20260502183528 15 235 8.0 25.7 0.00 0.00 0.00 79 1013.4
20260502183043 15 229 6.4 24.1 0.00 0.00 0.00 79 1013.4
20260502182528 15 235 8.0 22.5 0.00 0.00 0.00 78 1013.4
20260502182031 15 211 6.4 19.3 0.00 0.00 0.00 78 1013.4
20260502181544 15 243 6.4 19.3 0.00 0.00 0.00 77 1013.3
20260502181030 15 223 3.2 19.3 0.00 0.00 0.00 78 1013.3
20260502180528 15 261 6.4 19.3 0.00 0.00 0.00 78 1013.2